METEOR 2-7 DEB, 59993

Orbit data source: Space-Track

METEOR 2-7 DEB, 59993 is space debris in LEO originally from a launch on Thu, 14 May 1981 UTC launched from the Plesetsk Missile And Space Complex (PKMTR). Debris objects in space refer to the collection of defunct objects orbiting the Earth. Examples of debris include non-operational satellites, rocket bodies, and fragments generated from explosions, collisions, or faulty payload assembly.

Loading next visibility...
Identifier
59993, 1981-043AB
Orbit
LEO
Country
Flag of CISCIS
Related business
Manufacturer
Unknown
Mission
Spacecraft
Bus & Motor
Unknown
Mass
Unknown
Launch date (UTC)
1981-05-14 (45 years ago)
Launch vehicle
Unknown
Launch site
Plesetsk Missile And Space Complex (PKMTR)
Object type
Payload
Rocket body
Debris
Shape & HBR
Unknown shape, 1.1 m
Radar Cross Section
Small (<0.1 m²)

Expand to show TLE details & history
Last TLE update: 19 hours ago

TLE from 19 hours ago
0 METEOR 2-7 DEB
1 59993U 81043AB  26073.93214507  .00006888  00000-0  24575-2 0  9995
2 59993  81.2641 152.1975 0037154 277.3899  82.3064 14.33714310 98461
Epoch: 2026-03-14T22:22Z
TLE epoch observation values (Epoch: 2026-03-14T22:22:17.334Z)
Latitude
0.00006°
Longitude
4.07905°
Altitude
778.811 km
Speed
7.466 km/s
True Right ascension
10h 08m 47s
True Declination
0° 00' 00"
Sunlit
Object was in full shadow at epoch
Visualization orbit readout
Latitude
Unknown
Longitude
Unknown
Altitude
Unknown
Speed
Unknown
Apparent Right ascension
Unknown
Apparent Declination
Unknown
Sunlit
N/A
Visualization observer readout
Local Sidereal Time
21:33:49
Azimuth
Unknown
Elevation
Unknown
Doppler factor
Unknown
Orbital elements
Apogee altitude
803.066 km
Perigee altitude
749.901 km
Semi-major axis
7,154.621 km
Eccentricity
0.00372
Inclination
81.2641°
RAAN
152.1975°
Arg. of periapsis
277.3899°
True anomaly
82.72858°
Mean anomaly
82.3064°
Eccentric anomaly
82.51746°
Mean motion
3.58644 °/min
Orbital period
100.38 mins
BSTAR
0.0024575
Loading maneuver chart data...
Computing Atmospheric mass density...
Loading historical data...
Loading historical data...
Loading historical data...
Loading historical data...
Loading historical data...
Loading historical data...
Loading historical data...

Documentation

Showing up to 5 results
|